Location: Kellogg
(38.0159°N, 90.0546°W)
Time: 22:26:59
(UTC+00:00)

Explorer 11/Cluster Stage 4 - Visible Passes

Search period start: 11 September 2024 00:00
Search period end: 21 September 2024 00:00
Orbit: 464 x 1209 km, 28.8° (Epoch: 10 September)

Date Brightness Start Highest point End Pass type
(mag) Time Alt. Az. Time Alt. Az. Time Alt. Az.
13 Sep 9.5 11:07:31 10° SSE 11:09:09 11° SE 11:10:52 10° SE visible
14 Sep 9.4 10:48:14 10° SSE 10:49:57 11° SSE 10:51:44 10° SE visible
15 Sep 9.3 10:29:03 10° SSE 10:30:45 11° SSE 10:32:30 10° SE visible
16 Sep 9.1 10:09:57 10° SSE 10:11:33 11° SSE 10:13:14 10° SE visible
17 Sep 9.0 09:50:54 10° SSE 09:52:22 11° SSE 09:53:54 10° SE visible
18 Sep 8.9 09:31:58 10° SSE 09:33:12 11° SSE 09:34:32 10° SE visible
18 Sep 8.4 11:15:21 10° SW 11:20:14 28° SSE 11:25:59 10° ESE visible
19 Sep 8.9 09:14:14 11° SSE 09:14:14 11° SSE 09:15:08 10° SE visible
19 Sep 8.2 10:56:24 10° SW 11:01:02 28° SSE 11:06:31 10° ESE visible
20 Sep 8.1 10:38:03 13° SW 10:41:51 27° SSE 10:47:04 10° ESE visible
